Location: Berlin
(38.3226°N, 75.2177°W)
Time: 23:01:57
(UTC+00:00)

Atlas Centaur 2 - Pass Details

Date: 26 October 2020
Orbit: 459 x 1309 km, 30.4° (Epoch: 25 November)

Event Time Altitude Azimuth Distance (km) Brightness Sun altitude
Rises 00:23:07 0° 248° (WSW) 4,256 6.8 -26.9°
Reaches altitude 10° 00:26:11 10° 243° (WSW) 3,314 6.0 -27.5°
Maximum altitude 00:34:13 47° 174° (S) 1,647 3.5 -29.1°
Enters shadow 00:35:07 45° 156° (SSE) 1,668 3.4 -29.3°
